This demonstration page uses our WeatherBlox Daily Observations layout. Learn more.

Left ArrowRight Arrow

Hourly Observations for October 3, 2019

Temp ( °F °C ) Dew Point ( °F °C ) Humidity (%) Winds ( mph kmh ) Pressure ( in mb ) Visibility ( mi km ) Precip ( " mm )
12:53 am 00:53 Clear 74 23.3 68 20 82 82 Calm 29.97 1015 10 16 0.00 0.00
1:53 am 01:53 Clear 73 22.8 68 20 84 84 Calm 29.98 1015 10 16 0.00 0.00
2:53 am 02:53 Clear 73 22.8 68 20 84 84 Calm 29.98 1015 10 16 0.00 0.00
3:53 am 03:53 Clear 74 23.3 68 20 82 82 Calm 29.99 1016 10 16 0.00 0.00
4:53 am 04:53 Clear 74 23.3 68 20 82 82 Calm 29.99 1016 10 16 0.00 0.00
5:53 am 05:53 Clear 71 21.7 68 20 90 90 Calm 30.01 1016 9 14 0.00 0.00
6:53 am 06:53 Clear 70 21.1 67 19.4 90 90 Calm 30.02 1017 8 13 0.00 0.00
7:53 am 07:53 Sunny 72 22.2 68 20 87 87 Calm 30.03 1017 8 13 0.00 0.00
8:53 am 08:53 Sunny 75 23.9 69 20.6 82 82 Calm 30.04 1017 8 13 0.00 0.00
9:53 am 09:53 Sunny 81 27.2 70 21.1 69 69 Calm 30.05 1018 10 16 0.00 0.00
10:53 am 10:53 Sunny 89 31.7 68 20 50 50 VRB 5 7 30.04 1017 10 16 0.00 0.00
11:53 am 11:53 Sunny 91 32.8 68 20 47 47 Calm 30.04 1017 10 16 0.00 0.00
12:53 pm 12:53 Sunny 94 34.4 65 18.3 38 38 VRB 5 7 30.02 1017 10 16 0.00 0.00
1:53 pm 13:53 Sunny 97 36.1 64 17.8 34 34 N 8 13 30.00 1016 10 16 0.00 0.00
2:53 pm 14:53 Mostly Cloudy 97 36.1 63 17.2 33 33 NNW 5 7 29.98 1015 10 16 0.00 0.00
3:53 pm 15:53 Mostly Sunny 96 35.6 61 16.1 31 31 NNE 7 11 29.97 1015 10 16 0.00 0.00
4:53 pm 16:53 Sunny 96 35.6 60 15.6 30 30 N 3 6 29.96 1015 10 16 0.00 0.00
5:53 pm 17:53 Sunny 96 35.6 61 16.1 31 31 N 6 9 29.96 1014 10 16 0.00 0.00
6:53 pm 18:53 Sunny 92 33.3 62 16.7 37 37 Calm 29.96 1015 10 16 0.00 0.00
7:53 pm 19:53 Clear 84 28.9 65 18.3 53 53 Calm 29.97 1015 10 16 0.00 0.00
8:53 pm 20:53 Clear 80 26.7 66 18.9 62 62 Calm 29.98 1015 10 16 0.00 0.00
9:53 pm 21:53 Clear 77 25 66 18.9 69 69 Calm 30.00 1016 10 16 0.00 0.00
11:53 pm 23:53 Clear 74 23.3 67 19.4 79 79 Calm 30.01 1016 10 16 0.00 0.00

Powered by AerisWeather